Weather in Iskrivka

Ukraine / Kirovohrad Region     48°11′31″N   33°22′58″E
temp.,
°C
wind,
m/s
gust,
m/s
humid.,
%
clouds,
%
prec.,
mm/h
press.,
hPa
HPBL,
m
29 july, thu
thu2900:00+21sw378067 3.9 1014134
03:00+20sw358355 4.2 101382
06:00+20sw23860 0.0 101250
09:00+27wsw34625 0.0 1012400
12:00+32wsw45413 0.0 10111962
15:00+33wsw463591 0.0 10102482
18:00+21e587382 6.8 1009107
21:00+21sse48820 10.4 1010141
30 july, fri
fri3000:00+20sse4119099 0.9 1009248
03:00+21ssw339065 1.1 100958
06:00+20w229130 0.0 100924
09:00+24nw446957 0.1 1010575
12:00+28nnw235230 0.0 10091308
15:00+29n4448100 0.1 10082047
18:00+27w476098 0.2 1008470
21:00+25nw366161 0.2 1009184
31 july, sat
sat3100:00+23nnw410580 0.0 1010242
03:00+22nnw486078 0.0 1010187
06:00+20nnw36689 0.0 1011117
09:00+26n33510 0.0 1011500
12:00+30n33370 0.0 10112262
15:00+32n23310 0.0 10102566
18:00+31n333136 0.0 10102580
21:00+25ne33450 0.0 101128
1 august, sun
sun100:00+23e22500 0.0 101212
03:00+22nnw11540 0.0 101211
06:00+22ene11570 0.0 101211
09:00+27sse22450 0.0 1012344
12:00+31sw22333 0.0 10122084
15:00+33sw22280 0.0 10112509
18:00+33s23300 0.0 10102068
21:00+27sse34400 0.0 101039
2 august, mon
mon200:00+25sw35450 0.0 101167
03:00+23wsw33530 0.0 101032
06:00+22wsw22601 0.0 101021
09:00+29ssw34440 0.0 1010383
12:00+33sw56310 0.0 10101780
15:00+35sw44285 0.0 10082100
18:00+34ssw56283 0.0 10062183
21:00+24nnw121560100 0.0 1011566